This is the latest recevied weather packets stored in our database for station/object OE-11399. If no packets are shown the sender has not sent any weather packets the latest 10 day(s).
| Time | Temp. | Humidity | Pressure | Rain* | Wind** | Luminosity | Snow |
|---|---|---|---|---|---|---|---|
| 1787877327 | 15° C | 90% | 854 hPa | 0 mm | - | 0 W/m² | - |
| 1787876727 | 15° C | 91% | 854.1 hPa | 0 mm | - | 0 W/m² | - |
| 1787875899 | 15.56° C | 90% | 854.2 hPa | 0 mm | - | 0 W/m² | - |
| 1787875526 | 15.56° C | 90% | 854.3 hPa | 0 mm | - | 0 W/m² | - |
| 1787874927 | 15° C | 90% | 854.2 hPa | 0 mm | - | 0 W/m² | - |
| 1787874099 | 15.56° C | 91% | 854.5 hPa | 0 mm | - | 0 W/m² | - |
| 1787873727 | 15.56° C | 89% | 854.5 hPa | 0 mm | - | 0 W/m² | - |
| 1787873126 | 15.56° C | 90% | 854.6 hPa | 0 mm | - | 0 W/m² | - |
| 1787872527 | 16.11° C | 89% | 854.7 hPa | 0 mm | - | 0 W/m² | - |
| 1787871926 | 16.11° C | 88% | 854.9 hPa | 0 mm | - | 0 W/m² | - |
| 1787870500 | 16.11° C | 89% | 854.9 hPa | 0 mm | - | 0 W/m² | - |
| 1787870127 | 16.67° C | 88% | 854.9 hPa | 0 mm | - | 0 W/m² | - |
| 1787869527 | 16.67° C | 87% | 855.1 hPa | 0 mm | - | 0 W/m² | - |
| 1787868700 | 16.67° C | 88% | 855 hPa | 0 mm | - | 0 W/m² | - |
| 1787868326 | 16.67° C | 88% | 855.1 hPa | 0 mm | - | 0 W/m² | - |
| 1787867727 | 16.67° C | 88% | 855.1 hPa | 0 mm | - | 0 W/m² | - |
| 1787866900 | 17.22° C | 86% | 855.2 hPa | 0 mm | - | 0 W/m² | - |
| 1787866526 | 17.78° C | 86% | 855.2 hPa | 0 mm | - | 0 W/m² | - |
| 1787865927 | 17.78° C | 86% | 855 hPa | 0 mm | - | 0 W/m² | - |
| 1787865101 | 17.78° C | 86% | 855.1 hPa | 0 mm | - | 0 W/m² | - |
| 1787864726 | 18.33° C | 84% | 855.2 hPa | 0 mm | - | 0 W/m² | - |
| 1787864126 | 18.33° C | 84% | 855.2 hPa | 0 mm | - | 0 W/m² | - |
| 1787863300 | 18.33° C | 82% | 855.3 hPa | 0 mm | - | 0 W/m² | - |
| 1787862927 | 18.89° C | 83% | 855.3 hPa | 0 mm | - | 0 W/m² | - |
| 1787862327 | 18.89° C | 82% | 855.2 hPa | 0 mm | - | 0 W/m² | - |
* Rain latest hour (hover to see other rain measurements)
** Current wind speed in m/s (hover to see current wind gust speed)